Location: Bonnesvalyn
(49.1218°N, 3.3177°E)
Time: 23:57:02
(UTC+00:00)

Cosmos 1741 Rocket - Pass Details

Date: 09 February 2023
Orbit: 761 x 781 km, 74.0° (Epoch: 21 March)

Event Time Altitude Azimuth Distance (km) Brightness Sun altitude
Rises 18:17:54 0° 209° (SSW) 3,252 7.8 -13.7°
Reaches altitude 10° 18:20:18 10° 211° (SSW) 2,330 7.0 -14.1°
Maximum altitude 18:25:35 70° 295° (WNW) 836 4.3 -15.0°
Drops below altitude 10° 18:30:55 10° 20° (NNE) 2,347 6.3 -15.8°
Sets 18:33:20 0° 23° (NNE) 3,278 7.0 -16.2°
